Weather History for Lordsburg, NM

Change the Weather History Date:

Tuesday, November 20, 2012

  Actual Average Record
Temperature  
Mean Temperature 52 °F -  
Max Temperature 71 °F 64 °F 71 °F (2013)
Min Temperature 32 °F 28 °F 37 °F (2013)
Degree Days  
Heating Degree Days 14    
Growing Degree Days 2 (Base 50)    
Moisture  
Dew Point 32 °F    
Average Humidity 47    
Maximum Humidity 93    
Minimum Humidity 23    
Precipitation  
Precipitation 0.00 in - - ()
Sea Level Pressure  
Sea Level Pressure 30.23 in    
Wind  
Wind Speed 6 mph ()    
Max Wind Speed 18 mph    
Max Gust Speed 30 mph    
Visibility 10.0 miles    
Events      
Averages and records for this station are not official NWS values.
T = Trace of Precipitation, MM = Missing Value Source: Averaged Metar Reports

Daily Weather History Graph

Daily Weather History Graph

Search for Another Location

Airport:

Trip Planner

Search our weather history database for the weather conditions in past years. The results will help you decide how hot, cold, wet, or windy it might be!

Date:

Astronomy

Nov. 20, 2012 Rise Set
Actual Time 6:49 AM MST 5:11 PM MST
Civil Twilight 6:22 AM MST 5:38 PM MST
Nautical Twilight 5:52 AM MST 6:07 PM MST
Astronomical Twilight 5:23 AM MST 6:37 PM MST
Moon 12:36 PM MST (11/20) No Moon Set
Length of Visible Light 11h 15m
Length of Day
10h 22m
First Quarter, 52% of the Moon is Illuminated
Nov 20
First Quarter
Nov 28
Full
Dec 6
Last Quarter
Dec 13
New
Dec 19
First Quarter

Hourly Weather History & Observations

Time (MST) Temp. Windchill Dew Point Humidity Pressure Visibility Wind Dir Wind Speed Gust Speed Precip Events Conditions
12:15 AM 42.8 °F 41.1 °F 32.0 °F 66% 30.28 in 10.0 mi SSE 3.5 mph - N/A   Clear
12:35 AM 41.0 °F - 32.0 °F 70% 30.28 in 10.0 mi Calm Calm - N/A   Clear
12:55 AM 37.4 °F - 32.0 °F 81% 30.28 in 10.0 mi Calm Calm - N/A   Clear
1:15 AM 35.6 °F - 30.2 °F 81% 30.27 in 10.0 mi Calm Calm - N/A   Clear
1:35 AM 37.4 °F 34.9 °F 30.2 °F 75% 30.27 in 10.0 mi SSE 3.5 mph - N/A   Clear
5:15 AM 32.0 °F - 28.4 °F 87% 30.27 in 10.0 mi Calm Calm - N/A   Clear
5:35 AM 32.0 °F 27.5 °F 30.2 °F 93% 30.27 in 10.0 mi ESE 4.6 mph - N/A   Clear
5:55 AM 32.0 °F 28.7 °F 30.2 °F 93% 30.28 in 10.0 mi SE 3.5 mph - N/A   Clear
6:15 AM 32.0 °F - 30.2 °F 93% 30.28 in 10.0 mi Calm Calm - N/A   Clear
6:35 AM 32.0 °F - 30.2 °F 93% 30.28 in 10.0 mi Calm Calm - N/A   Clear
6:55 AM 32.0 °F - 30.2 °F 93% 30.29 in 10.0 mi Calm Calm - N/A   Clear
7:15 AM 33.8 °F - 30.2 °F 87% 30.29 in 10.0 mi Calm Calm - N/A   Clear
7:35 AM 33.8 °F - 30.2 °F 87% 30.30 in 10.0 mi Calm Calm - N/A   Clear
7:55 AM 35.6 °F 32.8 °F 30.2 °F 81% 30.31 in 10.0 mi East 3.5 mph - N/A   Clear
8:15 AM 41.0 °F 39.0 °F 32.0 °F 70% 30.31 in 10.0 mi ESE 3.5 mph - N/A   Clear
8:35 AM 44.6 °F 42.2 °F 32.0 °F 61% 30.31 in 10.0 mi ESE 4.6 mph - N/A   Clear
8:55 AM 50.0 °F - 32.0 °F 50% 30.32 in 10.0 mi SE 4.6 mph - N/A   Clear
9:15 AM 53.6 °F - 33.8 °F 47% 30.32 in 10.0 mi SE 4.6 mph - N/A   Clear
9:35 AM 57.2 °F - 33.8 °F 41% 30.31 in 10.0 mi East 5.8 mph - N/A   Clear
9:55 AM 59.0 °F - 33.8 °F 39% 30.31 in 10.0 mi ESE 8.1 mph - N/A   Clear
10:15 AM 60.8 °F - 33.8 °F 36% 30.31 in 10.0 mi SE 10.4 mph - N/A   Clear
10:35 AM 62.6 °F - 33.8 °F 34% 30.29 in 10.0 mi SE 13.8 mph - N/A   Clear
10:55 AM 64.4 °F - 33.8 °F 32% 30.28 in 10.0 mi SE 13.8 mph 21.9 mph N/A   Clear
11:15 AM 68.0 °F - 33.8 °F 28% 30.27 in 10.0 mi ESE 17.3 mph 20.7 mph N/A   Clear
11:35 AM 68.0 °F - 33.8 °F 28% 30.26 in 10.0 mi ESE 16.1 mph 23.0 mph N/A   Clear
11:55 AM 68.0 °F - 33.8 °F 28% 30.25 in 10.0 mi ESE 17.3 mph 23.0 mph N/A   Clear
12:15 PM 68.0 °F - 33.8 °F 28% 30.24 in 10.0 mi ESE 18.4 mph 23.0 mph N/A   Clear
12:35 PM 69.8 °F - 32.0 °F 25% 30.22 in 10.0 mi ESE 17.3 mph 25.3 mph N/A   Clear
12:55 PM 69.8 °F - 32.0 °F 25% 30.21 in 10.0 mi ESE 15.0 mph 24.2 mph N/A   Clear
1:15 PM 69.8 °F - 32.0 °F 25% 30.20 in 10.0 mi ESE 17.3 mph 29.9 mph N/A   Clear
1:35 PM 71.6 °F - 32.0 °F 23% 30.19 in 10.0 mi SE 17.3 mph 21.9 mph N/A   Clear
1:55 PM 69.8 °F - 32.0 °F 25% 30.18 in 10.0 mi ESE 17.3 mph 23.0 mph N/A   Clear
2:15 PM 69.8 °F - 33.8 °F 27% 30.18 in 10.0 mi SE 11.5 mph 18.4 mph N/A   Clear
2:35 PM 71.6 °F - 33.8 °F 25% 30.17 in 10.0 mi ESE 12.7 mph 17.3 mph N/A   Clear
2:55 PM 69.8 °F - 33.8 °F 27% 30.17 in 10.0 mi SE 10.4 mph 25.3 mph N/A   Clear
3:15 PM 68.0 °F - 33.8 °F 28% 30.17 in 10.0 mi ESE 12.7 mph 19.6 mph N/A   Clear
3:35 PM 68.0 °F - 33.8 °F 28% 30.17 in 10.0 mi ESE 15.0 mph 18.4 mph N/A   Clear
3:55 PM 68.0 °F - 32.0 °F 26% 30.17 in 10.0 mi East 11.5 mph - N/A   Clear
4:15 PM 68.0 °F - 32.0 °F 26% 30.16 in 10.0 mi East 11.5 mph - N/A   Clear
4:35 PM 68.0 °F - 33.8 °F 28% 30.16 in 10.0 mi ESE 11.5 mph - N/A   Clear
4:55 PM 66.2 °F - 33.8 °F 30% 30.17 in 10.0 mi ESE 10.4 mph - N/A   Clear
5:15 PM 64.4 °F - 33.8 °F 32% 30.18 in 10.0 mi ESE 6.9 mph - N/A   Clear
5:35 PM 62.6 °F - 33.8 °F 34% 30.18 in 10.0 mi SSE 6.9 mph - N/A   Clear
5:55 PM 60.8 °F - 33.8 °F 36% 30.18 in 10.0 mi SSE 5.8 mph - N/A   Clear
6:15 PM 60.8 °F - 33.8 °F 36% 30.18 in 10.0 mi SSE 5.8 mph - N/A   Clear
6:35 PM 57.2 °F - 33.8 °F 41% 30.18 in 10.0 mi SSE 5.8 mph - N/A   Clear
6:55 PM 55.4 °F - 32.0 °F 41% 30.19 in 10.0 mi SE 5.8 mph - N/A   Clear
7:15 PM 53.6 °F - 32.0 °F 44% 30.19 in 10.0 mi SSE 6.9 mph - N/A   Clear
7:35 PM 53.6 °F - 33.8 °F 47% 30.19 in 10.0 mi SSE 9.2 mph - N/A   Clear
7:55 PM 55.4 °F - 33.8 °F 44% 30.19 in 10.0 mi SSE 8.1 mph - N/A   Clear
8:15 PM 53.6 °F - 32.0 °F 44% 30.19 in 10.0 mi SSE 6.9 mph - N/A   Clear
8:35 PM 53.6 °F - 32.0 °F 44% 30.19 in 10.0 mi South 6.9 mph - N/A   Clear
8:55 PM 53.6 °F - 32.0 °F 44% 30.19 in 10.0 mi SSE 8.1 mph - N/A   Clear
9:15 PM 55.4 °F - 32.0 °F 41% 30.19 in 10.0 mi SSE 9.2 mph - N/A   Clear
9:35 PM 55.4 °F - 32.0 °F 41% 30.19 in 10.0 mi SSE 6.9 mph - N/A   Clear
9:55 PM 55.4 °F - 32.0 °F 41% 30.19 in 10.0 mi South 9.2 mph - N/A   Clear
10:15 PM 53.6 °F - 32.0 °F 44% 30.18 in 10.0 mi SSE 5.8 mph - N/A   Clear
10:35 PM 55.4 °F - 33.8 °F 44% 30.18 in 10.0 mi South 5.8 mph - N/A   Clear
10:55 PM 55.4 °F - 32.0 °F 41% 30.18 in 10.0 mi SSE 6.9 mph - N/A   Clear
11:15 PM 55.4 °F - 32.0 °F 41% 30.18 in 10.0 mi SSE 4.6 mph - N/A   Clear
11:35 PM 55.4 °F - 32.0 °F 41% 30.18 in 10.0 mi South 4.6 mph - N/A   Clear
11:55 PM 53.6 °F - 32.0 °F 44% 30.18 in 10.0 mi SW 4.6 mph - N/A   Clear